Wind_Speed
20 18 17 20 15 16 17 14 16 16 15 12 9 6 4 5 4 5 6 8 6 8
23 19 18 15 13 14 15 13 13 17 16 12 10 9 8 8 8 8 9 9 9 6
28 24 20 15 13 17 16 15 15 15 13 13 10 10 8 9 9 8 7 7 8 9
30 27 24 20 17 15 16 15 14 10 10 10 11 10 11 9 9 11 11 11 11 11
28 26 26 25 21 17 16 14 12 12 11 10 11 12 12 11 9 9 10 11 10 10
32 30 29 27 24 21 20 18 15 15 16 15 14 12 14 13 11 11 11 10 10 11
34 31 29 28 26 24 24 21 20 20 18 18 15 13 13 14 13 13 13 10 9 10
35 31 29 28 27 25 25 27 25 21 20 18 17 16 13 13 15 15 14 13 11 9
35 34 32 30 28 25 28 28 23 22 19 16 14 13 15 15 13 10 12 10 10 8
30 34 33 30 28 27 25 22 18 17 16 15 12 13 16 15 12 9 7 8 9 9
22 27 30 28 23 22 22 17 15 13 12 12 14 16 16 13 11 9 8 8 10 11
13 19 27 23 22 20 16 15 13 9 7 6 7 4 4 5 6 7 7 6 6 5
6 8 21 16 16 14 13 10 9 8 6 5 3 2 3 3 6 8 7 6 3 2
13 11 13 15 14 14 14 13 11 11 10 8 7 6 5 6 5 7 7 3 2 1
Wind_Direction
194 191 190 189 192 217 211 209 199 195 185 203 211 218 232 255 272 278 269 284 286 277
199 197 196 192 206 203 204 205 198 198 192 200 213 224 232 237 253 253 272 276 292 324
197 201 202 210 215 209 205 196 190 200 220 228 227 236 247 247 250 245 248 269 257 272
200 202 204 204 210 206 207 207 211 224 209 208 227 231 239 245 254 264 264 265 278 278
202 207 210 211 214 216 212 216 225 213 215 221 230 230 230 239 255 262 266 278 275 274
204 207 211 215 219 222 222 225 227 221 224 224 236 236 236 245 252 258 260 266 273 277
204 208 210 210 214 221 219 223 223 224 231 237 243 245 241 243 248 259 259 262 265 279
207 210 213 214 217 224 226 230 227 231 235 241 245 249 250 252 251 253 254 255 259 275
209 207 211 213 217 229 228 232 233 234 238 240 249 261 252 258 255 263 242 240 246 261
208 209 209 212 212 215 211 215 222 232 239 243 250 254 254 250 248 240 235 245 254 250
213 220 218 214 212 224 218 217 225 227 235 244 249 245 248 252 246 231 236 240 250 254
211 208 218 198 206 211 195 198 217 208 213 235 257 246 199 203 204 217 222 222 227 233
185 209 199 196 201 182 179 160 141 129 126 148 164 223 205 207 211 191 193 195 193 206
144 155 145 146 143 141 138 135 134 128 116 113 111 107 109 122 143 175 172 143 97 73
Height
838 839 839 840 841 841 840 841 842 843 845 848 848 847 847 847 848 848 849 847 847 848
833 836 837 839 839 840 840 840 840 841 843 844 845 845 846 846 847 847 846 846 846 845
827 832 835 837 837 838 839 839 840 840 841 841 842 842 842 843 844 845 845 845 845 844
824 827 831 834 836 837 838 838 839 839 839 840 841 841 840 840 841 841 841 841 841 841
820 824 827 830 832 834 836 837 838 838 839 839 839 840 840 840 840 840 840 840 840 839
815 818 820 824 829 832 833 835 836 837 838 838 838 838 838 838 839 839 839 839 839 839
808 812 816 819 823 827 831 833 834 835 835 835 836 836 836 837 837 838 838 838 837 837
803 807 811 815 819 822 825 828 830 832 832 833 833 834 834 833 833 834 834 834 835 833
800 802 805 808 813 817 820 824 827 829 830 830 831 829 830 830 830 830 830 830 831 831
797 798 800 804 807 812 815 820 823 824 826 826 827 826 826 826 827 827 827 827 827 827
794 796 797 801 804 809 812 816 818 820 821 821 822 822 822 823 823 824 825 825 825 825
790 789 795 795 800 806 808 810 814 816 818 819 820 820 820 821 822 822 823 823 823 823
786 786 792 791 797 800 804 808 814 816 818 818 819 820 820 820 821 820 821 821 822 822
789 787 786 795 799 803 805 808 814 816 817 818 819 819 820 819 820 820 821 822 822 823